Regional Weather Roundup
Issued by NWS State College, PA

Home | Current Version | Previous Version | Graphics & Text | Print | Product List | Glossary On
Versions: 1 2 3 4 5 6 7 8 9 10 11 12 13 14 15 16 17 18 19 20 21 22 23 24 25 26 27 28 29 30 31 32 33 34 35 36 37 38 39 40 41 42 43 44 45 46 47 48 49 50
000
ASUS41 KCTP 010203
RWRCTP

REGIONAL WEATHER ROUNDUP
NATIONAL WEATHER SERVICE STATE COLLEGE PA
1000 PM EDT FRI JUL 31 2015

Note: "fair" indicates few or no clouds below 12,000 feet with no
significant weather and/or obstructions to visibility.

* = STATION THAT DOES NOT REPORT PRECIPITATION /E.G. RAIN...SNOW...ETC/
    THUNDER OR FOG.

PAZ002>004-007>009-013>016-020>023-029>032-010300-
WESTERN PENNSYLVANIA

CITY           SKY/WX    TMP DP  RH WIND       PRES   REMARKS
ERIE           PTCLDY    72  61  68 S5        29.83S
MEADVILLE      CLOUDY    74  54  49 SW3       29.88R
FRANKLIN*      MOCLDY    68  54  60 S7        29.90S
NEW CASTLE     FAIR      74  58  57 CALM      29.89S
BEAVER COUNTY  NOT AVBL
BUTLER*        CLEAR     70  55  60 CALM      29.92R
PITTSBURGH INT PTCLDY    76  57  51 SW7       29.91R
PITTSBURGH     CLEAR     76  56  49 SW7       29.91R
INDIANA*       CLEAR     70  61  73 SW6       29.95R
LATROBE        PTCLDY    73  61  64 SW9       29.93R
WASHINGTON CO* NOT AVBL
$$

PAZ004>006-010>012-017>019-024>028-033>037-041-042-045-046-049>053-010300-
CENTRAL PENNSYLVANIA

CITY           SKY/WX    TMP DP  RH WIND       PRES   REMARKS
BRADFORD       MOCLDY    69  55  60 CALM      29.90S
DUBOIS         CLEAR     69  59  70 SW3       29.90R
CLEARFIELD     CLEAR     72  58  61 W5        29.90R
JOHNSTOWN      CLEAR     70  56  61 SW7       29.96R
ALTOONA        CLEAR     74  58  57 SW8       29.93R
STATE COLLEGE  NOT AVBL
WILLIAMSPORT   CLEAR     73  62  68 N5        29.82R
SELINSGROVE    CLEAR     67  65  93 CALM      29.85R
FT INDIANTOWN  CLEAR     69  64  82 N2        29.86R
CAPITAL CITY   CLEAR     77  59  53 W6        29.86R
HARRISBURG     PTCLDY    82  61  48 W8        29.85R
YORK           CLEAR     69  64  84 CALM      29.88R
$$

PAZ038>040-043-044-047-048-054-055-060>062-067>071-010300-
EASTERN PENNSYLVANIA

CITY           SKY/WX    TMP DP  RH WIND       PRES   REMARKS
SCRANTON       CLEAR     75  58  55 S3        29.85R
MOUNT POCONO   CLEAR     65  59  81 W3        29.91R
ALLENTOWN      CLEAR     76  60  57 SW3       29.85R
QUAKERTOWN*    CLEAR     70  64  83 CALM      29.87R
READING        CLEAR     76  62  62 CALM      29.85R
LANCASTER      CLEAR     74  62  66 CALM      29.86R
COATESVILLE    CLEAR     73  63  68 W5        29.89R
POTTSTOWN      CLEAR     71  64  78 CALM      29.87R
BLUE BELL      CLEAR     68  64  88 CALM      29.85R
DOYLESTOWN     CLEAR     71  60  68 CALM      29.85R
WILLOW GROVE   NOT AVBL
NORTH PHILA    CLEAR     78  56  46 CALM      29.86R
PHILADELPHIA   CLEAR     82  61  48 SW7       29.86R
$$


USA.gov is the U.S. government's official web portal to all federal, state and local government web resources and services.